| time (UTC) | temp F | wind direction | speed knots | gust knots | rain 1hr in | rain 24hr in | rain mn in | humidity % | barometer mb |
| 20260906220004 | 89 | 42 | 2.6 | 7.8 | 0.00 | 0.00 | 0.00 | 32 | 1013.1 |
| 20260906214606 | 88 | 61 | 3.5 | 8.7 | 0.00 | 0.00 | 0.00 | 32 | 1013.2 |
| 20260906213043 | 88 | 360 | 4.3 | 9.6 | 0.00 | 0.00 | 0.00 | 34 | 1013.6 |
| 20260906211537 | 88 | 38 | 2.6 | 9.6 | 0.00 | 0.00 | 0.00 | 34 | 1013.9 |
| 20260906210058 | 87 | 360 | 2.6 | 9.6 | 0.00 | 0.00 | 0.00 | 36 | 1014.2 |
| 20260906204536 | 87 | 9 | 2.6 | 9.6 | 0.00 | 0.00 | 0.00 | 36 | 1014.5 |
| 20260906203046 | 87 | 5 | 0.9 | 6.1 | 0.00 | 0.00 | 0.00 | 36 | 1014.8 |
| 20260906201544 | 86 | 139 | 0.0 | 8.7 | 0.00 | 0.00 | 0.00 | 36 | 1015.0 |
| 20260906200032 | 86 | 32 | 2.6 | 7.8 | 0.00 | 0.00 | 0.00 | 36 | 1015.0 |
| 20260906194520 | 85 | 84 | 4.3 | 10.4 | 0.00 | 0.00 | 0.00 | 30 | 1015.1 |
| 20260906193013 | 85 | 15 | 2.6 | 7.8 | 0.00 | 0.00 | 0.00 | 37 | 1015.2 |
| 20260906191509 | 85 | 140 | 1.7 | 7.0 | 0.00 | 0.00 | 0.00 | 40 | 1015.4 |
| 20260906190059 | 85 | 41 | 0.9 | 7.8 | 0.00 | 0.00 | 0.00 | 38 | 1015.6 |
| 20260906184550 | 84 | 296 | 1.7 | 7.0 | 0.00 | 0.00 | 0.00 | 40 | 1015.9 |
| 20260906183056 | 84 | 155 | 0.9 | 5.2 | 0.00 | 0.00 | 0.00 | 41 | 1016.2 |
| 20260906181548 | 81 | 199 | 1.7 | 4.3 | 0.00 | 0.00 | 0.00 | 43 | 1016.6 |
| 20260906174607 | 81 | 5 | 1.7 | 7.0 | 0.00 | 0.00 | 0.00 | 43 | 1017.2 |
| 20260906173047 | 81 | 5 | 4.3 | 7.0 | 0.00 | 0.00 | 0.00 | 42 | 1017.4 |
| 20260906171606 | 79 | 13 | 0.0 | 4.3 | 0.00 | 0.00 | 0.00 | 46 | 1017.7 |
| 20260906170045 | 78 | 360 | 1.7 | 7.0 | 0.00 | 0.00 | 0.00 | 47 | 1018.0 |
| 20260906164528 | 77 | 29 | 0.9 | 4.3 | 0.00 | 0.00 | 0.00 | 51 | 1017.9 |
| 20260906163024 | 76 | 360 | 2.6 | 5.2 | 0.00 | 0.00 | 0.00 | 55 | 1018.0 |
| 20260906161534 | 74 | 5 | 0.9 | 2.6 | 0.00 | 0.00 | 0.00 | 58 | 1018.0 |
| 20260906160005 | 74 | 5 | 0.0 | 5.2 | 0.00 | 0.00 | 0.00 | 60 | 1017.9 |
| 20260906154559 | 72 | 15 | 1.7 | 7.0 | 0.00 | 0.00 | 0.00 | 63 | 1017.9 |
| 20260906154503 | 72 | 20 | 1.7 | 7.0 | 0.00 | 0.00 | 0.00 | 63 | 1017.8 |
| 20260906153108 | 71 | 9 | 1.7 | 7.0 | 0.00 | 0.00 | 0.00 | 66 | 1017.9 |
| 20260906151558 | 70 | 360 | 0.9 | 4.3 | 0.00 | 0.00 | 0.00 | 69 | 1018.0 |
| 20260906151506 | 70 | 16 | 0.9 | 4.3 | 0.00 | 0.00 | 0.00 | 69 | 1018.1 |
| 20260906150054 | 69 | 15 | 0.9 | 4.3 | 0.00 | 0.00 | 0.00 | 71 | 1018.0 |
| 20260906144546 | 67 | 16 | 2.6 | 7.0 | 0.00 | 0.00 | 0.00 | 72 | 1017.9 |
| 20260906143038 | 67 | 18 | 2.6 | 5.2 | 0.00 | 0.00 | 0.00 | 73 | 1018.0 |
| 20260906141527 | 66 | 15 | 1.7 | 5.2 | 0.00 | 0.00 | 0.00 | 73 | 1018.1 |
| 20260906140024 | 65 | 17 | 0.9 | 4.3 | 0.00 | 0.00 | 0.00 | 75 | 1018.0 |
| 20260906134514 | 64 | 22 | 0.9 | 4.3 | 0.00 | 0.00 | 0.00 | 75 | 1017.8 |
| 20260906133010 | 63 | 17 | 0.9 | 4.3 | 0.00 | 0.00 | 0.00 | 76 | 1017.6 |
| 20260906131503 | 63 | 16 | 1.7 | 4.3 | 0.00 | 0.00 | 0.00 | 79 | 1017.4 |
| 20260906130001 | 62 | 28 | 0.0 | 5.2 | 0.00 | 0.00 | 0.00 | 81 | 1017.3 |
| 20260906124550 | 62 | 55 | 0.9 | 3.5 | 0.00 | 0.00 | 0.00 | 83 | 1017.3 |
| 20260906123047 | 62 | 5 | 0.0 | 0.0 | 0.00 | 0.00 | 0.00 | 84 | 1017.4 |
| 20260906121541 | 62 | 5 | 0.0 | 0.0 | 0.00 | 0.00 | 0.00 | 84 | 1017.4 |
| 20260906120027 | 62 | 5 | 0.0 | 0.9 | 0.00 | 0.00 | 0.00 | 83 | 1017.5 |
| 20260906114543 | 62 | 5 | 0.0 | 4.3 | 0.00 | 0.00 | 0.00 | 81 | 1017.2 |
| 20260906113028 | 62 | 5 | 1.7 | 4.3 | 0.00 | 0.00 | 0.00 | 80 | 1017.3 |
| 20260906111521 | 63 | 61 | 0.9 | 7.8 | 0.00 | 0.00 | 0.00 | 78 | 1017.3 |
| 20260906110012 | 63 | 34 | 0.9 | 7.0 | 0.00 | 0.00 | 0.00 | 76 | 1017.0 |
| 20260906104553 | 63 | 23 | 1.7 | 5.2 | 0.00 | 0.00 | 0.00 | 75 | 1016.9 |
| 20260906104503 | 63 | 20 | 1.7 | 5.2 | 0.00 | 0.00 | 0.00 | 75 | 1016.9 |
| 20260906103049 | 64 | 19 | 0.9 | 4.3 | 0.00 | 0.00 | 0.00 | 73 | 1017.0 |
| 20260906101537 | 64 | 5 | 0.0 | 2.6 | 0.00 | 0.00 | 0.00 | 71 | 1016.9 |
| 20260906100041 | 65 | 5 | 0.9 | 3.5 | 0.00 | 0.00 | 0.00 | 67 | 1016.9 |
| 20260906094541 | 66 | 5 | 0.0 | 4.3 | 0.00 | 0.00 | 0.00 | 63 | 1016.9 |
| 20260906093049 | 66 | 5 | 1.7 | 4.3 | 0.00 | 0.00 | 0.00 | 61 | 1016.9 |
| 20260906091538 | 67 | 360 | 1.7 | 3.5 | 0.00 | 0.00 | 0.00 | 59 | 1017.1 |
| 20260906090026 | 68 | 16 | 0.9 | 3.5 | 0.00 | 0.00 | 0.00 | 58 | 1016.8 |
| 20260906084517 | 69 | 17 | 1.7 | 5.2 | 0.00 | 0.00 | 0.00 | 54 | 1016.8 |
| 20260906083021 | 70 | 5 | 0.9 | 7.8 | 0.00 | 0.00 | 0.00 | 47 | 1016.7 |
| 20260906081529 | 71 | 12 | 0.0 | 4.3 | 0.00 | 0.00 | 0.00 | 46 | 1016.7 |
| 20260906080024 | 72 | 9 | 1.7 | 7.0 | 0.00 | 0.00 | 0.00 | 46 | 1016.5 |
| 20260906074511 | 72 | 5 | 2.6 | 7.8 | 0.00 | 0.00 | 0.00 | 47 | 1016.2 |
| 20260906073058 | 73 | 19 | 2.6 | 7.8 | 0.00 | 0.00 | 0.00 | 44 | 1016.2 |
| 20260906073002 | 73 | 19 | 3.5 | 7.8 | 0.00 | 0.00 | 0.00 | 44 | 1016.2 |
| 20260906071554 | 73 | 19 | 1.7 | 5.2 | 0.00 | 0.00 | 0.00 | 44 | 1016.4 |
| 20260906070041 | 73 | 17 | 1.7 | 5.2 | 0.00 | 0.00 | 0.00 | 46 | 1016.5 |
| 20260906064537 | 73 | 15 | 1.7 | 7.8 | 0.00 | 0.00 | 0.00 | 44 | 1016.4 |
| 20260906063047 | 74 | 16 | 3.5 | 7.0 | 0.00 | 0.00 | 0.00 | 44 | 1016.4 |
| 20260906061538 | 74 | 15 | 2.6 | 7.8 | 0.00 | 0.00 | 0.00 | 44 | 1016.8 |
| 20260906060046 | 75 | 9 | 2.6 | 8.7 | 0.00 | 0.00 | 0.00 | 41 | 1016.8 |
| 20260906054525 | 76 | 9 | 0.0 | 3.5 | 0.00 | 0.00 | 0.00 | 37 | 1016.6 |
| 20260906053017 | 77 | 16 | 0.0 | 3.5 | 0.00 | 0.00 | 0.00 | 37 | 1016.9 |
| 20260906051515 | 76 | 16 | 0.9 | 7.8 | 0.00 | 0.00 | 0.00 | 37 | 1017.2 |
| 20260906050025 | 75 | 14 | 0.9 | 4.3 | 0.00 | 0.00 | 0.00 | 38 | 1017.5 |
| 20260906044523 | 75 | 13 | 2.6 | 8.7 | 0.00 | 0.00 | 0.00 | 39 | 1017.6 |
| 20260906043025 | 75 | 9 | 0.0 | 2.6 | 0.00 | 0.00 | 0.00 | 37 | 1016.7 |
| 20260906041509 | 76 | 9 | 0.0 | 0.9 | 0.00 | 0.00 | 0.00 | 36 | 1016.1 |
| 20260906040057 | 76 | 17 | 0.9 | 1.7 | 0.00 | 0.00 | 0.00 | 36 | 1016.0 |
| 20260906040001 | 76 | 17 | 0.9 | 2.6 | 0.00 | 0.00 | 0.00 | 36 | 1015.9 |
| 20260906034601 | 76 | 16 | 0.0 | 0.0 | 0.00 | 0.00 | 0.00 | 36 | 1015.8 |
| 20260906033046 | 76 | 15 | 2.6 | 4.3 | 0.00 | 0.00 | 0.00 | 35 | 1016.0 |
| 20260906031543 | 77 | 19 | 0.0 | 0.0 | 0.00 | 0.00 | 0.00 | 34 | 1015.9 |
| 20260906030043 | 78 | 19 | 0.0 | 2.6 | 0.00 | 0.00 | 0.00 | 33 | 1015.3 |
| 20260906024555 | 79 | 5 | 0.9 | 3.5 | 0.00 | 0.00 | 0.00 | 32 | 1014.6 |
| 20260906023047 | 80 | 9 | 2.6 | 5.2 | 0.00 | 0.00 | 0.00 | 32 | 1014.7 |
| 20260906021542 | 81 | 17 | 2.6 | 7.0 | 0.00 | 0.00 | 0.00 | 31 | 1014.7 |
| 20260906020034 | 81 | 22 | 2.6 | 5.2 | 0.00 | 0.00 | 0.00 | 30 | 1014.6 |
| 20260906014529 | 82 | 17 | 2.6 | 8.7 | 0.00 | 0.00 | 0.00 | 29 | 1014.2 |
| 20260906013035 | 83 | 5 | 3.5 | 7.8 | 0.00 | 0.00 | 0.00 | 28 | 1014.2 |
| 20260906011531 | 84 | 17 | 1.7 | 8.7 | 0.00 | 0.00 | 0.00 | 28 | 1014.3 |
| 20260906010027 | 85 | 16 | 4.3 | 10.4 | 0.00 | 0.00 | 0.00 | 26 | 1014.2 |
| 20260906004549 | 87 | 5 | 2.6 | 7.8 | 0.00 | 0.00 | 0.00 | 23 | 1014.3 |
| 20260906003031 | 88 | 19 | 3.5 | 9.6 | 0.00 | 0.00 | 0.00 | 22 | 1014.1 |
| 20260906001543 | 91 | 37 | 1.7 | 4.3 | 0.00 | 0.00 | 0.00 | 21 | 1014.1 |
| 20260906000023 | 92 | 146 | 0.9 | 2.6 | 0.00 | 0.00 | 0.00 | 20 | 1014.0 |
| 20260905234537 | 92 | 171 | 0.9 | 4.3 | 0.00 | 0.00 | 0.00 | 21 | 1014.0 |
| 20260905233032 | 91 | 138 | 1.7 | 5.2 | 0.00 | 0.00 | 0.00 | 21 | 1014.0 |
| 20260905231528 | 91 | 146 | 1.7 | 4.3 | 0.00 | 0.00 | 0.00 | 20 | 1013.9 |
| 20260905230041 | 93 | 173 | 1.7 | 4.3 | 0.00 | 0.00 | 0.00 | 19 | 1013.9 |
| 20260905224533 | 92 | 242 | 0.0 | 2.6 | 0.00 | 0.00 | 0.00 | 19 | 1013.8 |
| 20260905223040 | 91 | 243 | 1.7 | 6.1 | 0.00 | 0.00 | 0.00 | 20 | 1014.0 |
| 20260905221521 | 90 | 181 | 0.9 | 4.3 | 0.00 | 0.00 | 0.00 | 21 | 1014.2 |